| time (UTC) | temp F | wind direction | speed MPH | gust MPH | rain 1hr in | rain 24hr in | rain mn in | humidity % | barometer mb |
| 20260509224009 | 66 | 190 | 7.0 | 16.0 | 0.00 | 0.00 | 0.00 | 55 | 1005.6 |
| 20260509223511 | 66 | 193 | 3.0 | 12.0 | 0.00 | 0.00 | 0.00 | 56 | 1005.7 |
| 20260509223022 | 66 | 256 | 5.0 | 16.0 | 0.00 | 0.00 | 0.00 | 56 | 1005.6 |
| 20260509222509 | 66 | 180 | 9.0 | 16.0 | 0.00 | 0.00 | 0.00 | 55 | 1005.5 |
| 20260509222007 | 66 | 207 | 5.0 | 12.0 | 0.00 | 0.00 | 0.00 | 55 | 1005.7 |
| 20260509221525 | 66 | 209 | 5.0 | 19.0 | 0.00 | 0.00 | 0.00 | 56 | 1005.7 |
| 20260509221009 | 66 | 220 | 6.0 | 19.0 | 0.00 | 0.00 | 0.00 | 56 | 1005.7 |
| 20260509220512 | 66 | 175 | 9.0 | 18.0 | 0.00 | 0.00 | 0.00 | 56 | 1005.7 |
| 20260509220024 | 66 | 230 | 8.0 | 15.0 | 0.00 | 0.00 | 0.00 | 56 | 1005.7 |
| 20260509215509 | 66 | 195 | 6.0 | 18.0 | 0.00 | 0.00 | 0.00 | 56 | 1005.8 |
| 20260509215009 | 66 | 173 | 7.0 | 18.0 | 0.00 | 0.00 | 0.00 | 56 | 1005.8 |
| 20260509214524 | 66 | 162 | 8.0 | 17.0 | 0.00 | 0.00 | 0.00 | 57 | 1005.8 |
| 20260509214010 | 66 | 182 | 9.0 | 16.0 | 0.00 | 0.00 | 0.00 | 58 | 1005.6 |
| 20260509213508 | 65 | 218 | 7.0 | 18.0 | 0.00 | 0.00 | 0.00 | 58 | 1005.8 |
| 20260509213024 | 66 | 199 | 10.0 | 19.0 | 0.00 | 0.00 | 0.00 | 57 | 1006.0 |
| 20260509212508 | 66 | 192 | 7.0 | 19.0 | 0.00 | 0.00 | 0.00 | 58 | 1006.0 |
| 20260509212007 | 65 | 236 | 6.0 | 18.0 | 0.00 | 0.00 | 0.00 | 59 | 1006.0 |
| 20260509211525 | 65 | 188 | 7.0 | 18.0 | 0.00 | 0.00 | 0.00 | 57 | 1006.0 |
| 20260509211009 | 66 | 212 | 4.0 | 18.0 | 0.00 | 0.00 | 0.00 | 59 | 1006.1 |
| 20260509210507 | 65 | 195 | 8.0 | 16.0 | 0.00 | 0.00 | 0.00 | 58 | 1006.1 |
| 20260509210023 | 65 | 198 | 8.0 | 16.0 | 0.00 | 0.00 | 0.00 | 57 | 1006.4 |
| 20260509205507 | 65 | 232 | 7.0 | 20.0 | 0.00 | 0.00 | 0.00 | 59 | 1006.6 |
| 20260509205007 | 65 | 237 | 7.0 | 20.0 | 0.00 | 0.00 | 0.00 | 59 | 1006.6 |
| 20260509204522 | 64 | 183 | 8.0 | 16.0 | 0.00 | 0.00 | 0.00 | 61 | 1006.6 |
| 20260509203503 | 64 | 208 | 7.0 | 16.0 | 0.00 | 0.00 | 0.00 | 61 | 1006.7 |
| 20260509203007 | 64 | 180 | 5.0 | 15.0 | 0.00 | 0.00 | 0.00 | 60 | 1006.8 |
| 20260509202503 | 65 | 180 | 5.0 | 15.0 | 0.00 | 0.00 | 0.00 | 58 | 1006.6 |
| 20260509202006 | 65 | 275 | 5.0 | 14.0 | 0.00 | 0.00 | 0.00 | 60 | 1006.8 |
| 20260509201505 | 65 | 243 | 5.0 | 14.0 | 0.00 | 0.00 | 0.00 | 61 | 1006.9 |
| 20260509201003 | 65 | 221 | 5.0 | 11.0 | 0.00 | 0.00 | 0.00 | 62 | 1007.0 |
| 20260509200503 | 65 | 228 | 2.0 | 11.0 | 0.00 | 0.00 | 0.00 | 61 | 1007.0 |
| 20260509195504 | 63 | 239 | 9.0 | 16.0 | 0.00 | 0.00 | 0.00 | 64 | 1007.2 |
| 20260509195002 | 63 | 275 | 5.0 | 14.0 | 0.00 | 0.00 | 0.00 | 64 | 1007.3 |
| 20260509194504 | 64 | 200 | 8.0 | 19.0 | 0.00 | 0.00 | 0.00 | 65 | 1007.2 |
| 20260509194003 | 63 | 209 | 9.0 | 19.0 | 0.00 | 0.00 | 0.00 | 65 | 1007.2 |
| 20260509193504 | 62 | 299 | 7.0 | 16.0 | 0.00 | 0.00 | 0.00 | 67 | 1007.2 |
| 20260509193008 | 62 | 222 | 4.0 | 16.0 | 0.00 | 0.00 | 0.00 | 68 | 1007.3 |
| 20260509192502 | 62 | 181 | 6.0 | 15.0 | 0.00 | 0.00 | 0.00 | 67 | 1007.2 |
| 20260509192002 | 62 | 280 | 5.0 | 13.0 | 0.00 | 0.00 | 0.00 | 68 | 1007.3 |
| 20260509191504 | 62 | 217 | 5.0 | 13.0 | 0.00 | 0.00 | 0.00 | 70 | 1007.4 |
| 20260509191004 | 62 | 237 | 6.0 | 17.0 | 0.00 | 0.00 | 0.00 | 68 | 1007.4 |
| 20260509190503 | 62 | 179 | 10.0 | 17.0 | 0.00 | 0.00 | 0.00 | 67 | 1007.3 |
| 20260509190009 | 62 | 175 | 8.0 | 17.0 | 0.00 | 0.00 | 0.00 | 67 | 1007.3 |
| 20260509185503 | 62 | 104 | 7.0 | 13.0 | 0.00 | 0.00 | 0.00 | 69 | 1007.5 |
| 20260509185003 | 62 | 244 | 6.0 | 13.0 | 0.00 | 0.00 | 0.00 | 70 | 1007.5 |
| 20260509184540 | 62 | 194 | 3.0 | 19.0 | 0.00 | 0.00 | 0.00 | 72 | 1007.5 |
| 20260509184009 | 61 | 215 | 7.0 | 19.0 | 0.00 | 0.00 | 0.00 | 70 | 1007.5 |
| 20260509183508 | 61 | 193 | 9.0 | 18.0 | 0.00 | 0.00 | 0.00 | 70 | 1007.6 |
| 20260509183026 | 61 | 197 | 5.0 | 18.0 | 0.00 | 0.00 | 0.00 | 71 | 1007.6 |
| 20260509182509 | 61 | 210 | 9.0 | 15.0 | 0.00 | 0.00 | 0.00 | 69 | 1007.6 |
| 20260509182010 | 61 | 247 | 5.0 | 14.0 | 0.00 | 0.00 | 0.00 | 71 | 1007.6 |
| 20260509181524 | 61 | 284 | 4.0 | 14.0 | 0.00 | 0.00 | 0.00 | 72 | 1007.6 |
| 20260509181011 | 61 | 229 | 7.0 | 13.0 | 0.00 | 0.00 | 0.00 | 73 | 1007.6 |
| 20260509180514 | 60 | 262 | 6.0 | 13.0 | 0.00 | 0.00 | 0.00 | 73 | 1007.7 |
| 20260509180027 | 60 | 252 | 4.0 | 16.0 | 0.00 | 0.00 | 0.00 | 76 | 1007.6 |
| 20260509175507 | 60 | 184 | 5.0 | 16.0 | 0.00 | 0.00 | 0.00 | 75 | 1007.8 |
| 20260509175010 | 60 | 173 | 6.0 | 17.0 | 0.00 | 0.00 | 0.00 | 76 | 1007.7 |
| 20260509173512 | 58 | 197 | 2.0 | 8.0 | 0.00 | 0.00 | 0.00 | 81 | 1007.9 |
| 20260509173026 | 58 | 206 | 2.0 | 7.0 | 0.00 | 0.00 | 0.00 | 80 | 1007.9 |
| 20260509172510 | 58 | 201 | 3.0 | 9.0 | 0.00 | 0.00 | 0.00 | 79 | 1007.9 |
| 20260509172009 | 58 | 136 | 4.0 | 9.0 | 0.00 | 0.00 | 0.00 | 80 | 1007.8 |
| 20260509171522 | 58 | 180 | 2.0 | 8.0 | 0.00 | 0.00 | 0.00 | 83 | 1007.9 |
| 20260509171007 | 57 | 232 | 4.0 | 8.0 | 0.00 | 0.00 | 0.00 | 84 | 1007.9 |
| 20260509170510 | 57 | 190 | 1.0 | 6.0 | 0.00 | 0.00 | 0.00 | 85 | 1007.9 |
| 20260509170044 | 57 | 223 | 1.0 | 5.0 | 0.00 | 0.00 | 0.00 | 85 | 1008.0 |
| 20260509165007 | 56 | 290 | 0.0 | 6.0 | 0.00 | 0.00 | 0.00 | 85 | 1007.9 |
| 20260509164525 | 56 | 263 | 3.0 | 11.0 | 0.00 | 0.00 | 0.00 | 86 | 1007.9 |
| 20260509162008 | 56 | 182 | 8.0 | 12.0 | 0.00 | 0.00 | 0.00 | 88 | 1007.7 |
| 20260509161522 | 56 | 161 | 3.0 | 11.0 | 0.00 | 0.00 | 0.00 | 90 | 1007.8 |
| 20260509161011 | 55 | 254 | 4.0 | 11.0 | 0.00 | 0.00 | 0.00 | 92 | 1007.9 |
| 20260509160508 | 55 | 271 | 4.0 | 9.0 | 0.00 | 0.00 | 0.00 | 94 | 1007.8 |
| 20260509160024 | 54 | 205 | 5.0 | 9.0 | 0.00 | 0.00 | 0.00 | 94 | 1007.7 |
| 20260509155508 | 54 | 181 | 3.0 | 8.0 | 0.00 | 0.00 | 0.00 | 95 | 1007.8 |
| 20260509155009 | 53 | 201 | 3.0 | 8.0 | 0.00 | 0.00 | 0.00 | 94 | 1007.8 |
| 20260509154524 | 53 | 249 | 2.0 | 8.0 | 0.00 | 0.00 | 0.00 | 95 | 1007.8 |
| 20260509153509 | 53 | 183 | 2.0 | 9.0 | 0.00 | 0.00 | 0.00 | 95 | 1007.8 |
| 20260509151008 | 52 | 242 | 4.0 | 11.0 | 0.00 | 0.00 | 0.00 | 95 | 1007.7 |
| 20260509150510 | 52 | 187 | 4.0 | 10.0 | 0.00 | 0.00 | 0.00 | 95 | 1007.7 |
| 20260509150026 | 52 | 195 | 4.0 | 10.0 | 0.00 | 0.00 | 0.00 | 95 | 1007.7 |
| 20260509145506 | 51 | 211 | 5.0 | 10.0 | 0.00 | 0.00 | 0.00 | 95 | 1007.7 |
| 20260509145009 | 51 | 193 | 3.0 | 8.0 | 0.00 | 0.00 | 0.00 | 95 | 1007.8 |
| 20260509144527 | 51 | 200 | 4.0 | 8.0 | 0.00 | 0.00 | 0.00 | 95 | 1007.8 |
| 20260509144009 | 51 | 217 | 2.0 | 9.0 | 0.00 | 0.00 | 0.00 | 95 | 1007.8 |
| 20260509143513 | 51 | 182 | 3.0 | 9.0 | 0.00 | 0.00 | 0.00 | 95 | 1007.8 |
| 20260509143026 | 51 | 200 | 3.0 | 6.0 | 0.00 | 0.00 | 0.00 | 95 | 1007.9 |
| 20260509140027 | 51 | 250 | 2.0 | 8.0 | 0.00 | 0.00 | 0.00 | 95 | 1007.9 |
| 20260509135510 | 51 | 200 | 3.0 | 8.0 | 0.00 | 0.00 | 0.00 | 95 | 1007.9 |
| 20260509135012 | 51 | 184 | 3.0 | 8.0 | 0.00 | 0.00 | 0.00 | 95 | 1007.9 |
| 20260509134530 | 51 | 176 | 3.0 | 8.0 | 0.00 | 0.00 | 0.00 | 95 | 1007.9 |
| 20260509134009 | 51 | 196 | 4.0 | 9.0 | 0.00 | 0.00 | 0.00 | 95 | 1007.9 |
| 20260509133509 | 51 | 195 | 2.0 | 9.0 | 0.00 | 0.00 | 0.00 | 95 | 1008.0 |
| 20260509133027 | 51 | 234 | 2.0 | 9.0 | 0.00 | 0.00 | 0.00 | 95 | 1008.0 |
| 20260509132513 | 51 | 195 | 3.0 | 9.0 | 0.00 | 0.00 | 0.00 | 95 | 1008.0 |
| 20260509132010 | 51 | 186 | 3.0 | 7.0 | 0.00 | 0.00 | 0.00 | 95 | 1007.9 |
| 20260509131528 | 51 | 200 | 4.0 | 8.0 | 0.00 | 0.00 | 0.00 | 95 | 1007.9 |
| 20260509131011 | 51 | 200 | 5.0 | 8.0 | 0.00 | 0.00 | 0.00 | 95 | 1007.9 |
| 20260509130511 | 51 | 187 | 4.0 | 9.0 | 0.00 | 0.00 | 0.00 | 95 | 1008.0 |
| 20260509130026 | 50 | 160 | 5.0 | 9.0 | 0.00 | 0.00 | 0.00 | 94 | 1008.0 |
| 20260509125510 | 51 | 257 | 4.0 | 8.0 | 0.00 | 0.00 | 0.00 | 94 | 1008.0 |
| 20260509125010 | 51 | 182 | 4.0 | 8.0 | 0.00 | 0.00 | 0.00 | 94 | 1008.0 |
| 20260509124525 | 50 | 198 | 5.0 | 10.0 | 0.00 | 0.00 | 0.00 | 94 | 1008.1 |
| 20260509124007 | 50 | 173 | 3.0 | 10.0 | 0.00 | 0.00 | 0.00 | 94 | 1008.0 |
| 20260509123507 | 50 | 175 | 4.0 | 10.0 | 0.00 | 0.00 | 0.00 | 94 | 1008.0 |
| 20260509123022 | 50 | 181 | 4.0 | 10.0 | 0.00 | 0.00 | 0.00 | 94 | 1008.1 |
| 20260509122510 | 50 | 194 | 4.0 | 9.0 | 0.00 | 0.00 | 0.00 | 94 | 1008.1 |
| 20260509122009 | 50 | 205 | 4.0 | 10.0 | 0.00 | 0.00 | 0.00 | 94 | 1008.1 |
| 20260509121528 | 50 | 183 | 4.0 | 10.0 | 0.00 | 0.00 | 0.00 | 94 | 1008.0 |
| 20260509121011 | 50 | 194 | 4.0 | 10.0 | 0.00 | 0.00 | 0.00 | 94 | 1008.0 |
| 20260509120511 | 50 | 202 | 5.0 | 10.0 | 0.00 | 0.00 | 0.00 | 94 | 1008.0 |
| 20260509120026 | 50 | 194 | 3.0 | 8.0 | 0.00 | 0.00 | 0.00 | 94 | 1008.0 |
| 20260509115509 | 50 | 223 | 3.0 | 7.0 | 0.00 | 0.00 | 0.00 | 94 | 1008.0 |
| 20260509115010 | 50 | 204 | 2.0 | 7.0 | 0.00 | 0.00 | 0.00 | 95 | 1008.1 |
| 20260509114528 | 50 | 188 | 3.0 | 6.0 | 0.00 | 0.00 | 0.00 | 95 | 1008.0 |
| 20260509114013 | 50 | 192 | 1.0 | 5.0 | 0.00 | 0.00 | 0.00 | 94 | 1008.1 |
| 20260509113507 | 49 | 210 | 2.0 | 5.0 | 0.00 | 0.00 | 0.00 | 94 | 1008.1 |
| 20260509113027 | 49 | 196 | 2.0 | 5.0 | 0.00 | 0.00 | 0.00 | 95 | 1008.1 |
| 20260509112507 | 49 | 222 | 1.0 | 4.0 | 0.00 | 0.00 | 0.00 | 95 | 1008.1 |
| 20260509112010 | 49 | 200 | 2.0 | 4.0 | 0.00 | 0.00 | 0.00 | 95 | 1008.1 |
| 20260509111524 | 49 | 231 | 1.0 | 5.0 | 0.00 | 0.00 | 0.00 | 95 | 1008.0 |
| 20260509111008 | 49 | 190 | 1.0 | 5.0 | 0.00 | 0.00 | 0.00 | 95 | 1007.9 |
| 20260509110508 | 49 | 206 | 2.0 | 5.0 | 0.00 | 0.00 | 0.00 | 95 | 1007.9 |
| 20260509110026 | 49 | 203 | 2.0 | 6.0 | 0.00 | 0.00 | 0.00 | 95 | 1007.9 |
| 20260509104526 | 49 | 227 | 0.0 | 4.0 | 0.00 | 0.00 | 0.00 | 95 | 1007.8 |
| 20260509103508 | 48 | 213 | 0.0 | 5.0 | 0.00 | 0.00 | 0.00 | 95 | 1007.9 |
| 20260509103026 | 48 | 175 | 0.0 | 5.0 | 0.00 | 0.00 | 0.00 | 95 | 1007.9 |
| 20260509102510 | 48 | 182 | 1.0 | 5.0 | 0.00 | 0.00 | 0.00 | 95 | 1007.8 |
| 20260509102011 | 48 | 211 | 0.0 | 3.0 | 0.00 | 0.00 | 0.00 | 95 | 1007.8 |
| 20260509101530 | 48 | 184 | 0.0 | 2.0 | 0.00 | 0.00 | 0.00 | 95 | 1007.8 |
| 20260509101007 | 48 | 123 | 0.0 | 3.0 | 0.00 | 0.00 | 0.00 | 95 | 1007.8 |
| 20260509100507 | 48 | 111 | 0.0 | 3.0 | 0.00 | 0.00 | 0.00 | 95 | 1007.8 |
| 20260509100026 | 48 | 119 | 0.0 | 1.0 | 0.00 | 0.00 | 0.00 | 95 | 1007.8 |
| 20260509095509 | 48 | 119 | 0.0 | 0.0 | 0.00 | 0.00 | 0.00 | 95 | 1008.0 |
| 20260509095010 | 48 | 119 | 0.0 | 0.0 | 0.00 | 0.00 | 0.00 | 95 | 1007.9 |
| 20260509094532 | 48 | 119 | 0.0 | 0.0 | 0.00 | 0.00 | 0.00 | 95 | 1008.1 |
| 20260509094010 | 48 | 119 | 0.0 | 0.0 | 0.00 | 0.00 | 0.00 | 95 | 1008.2 |
| 20260509093026 | 48 | 119 | 0.0 | 0.0 | 0.00 | 0.00 | 0.00 | 94 | 1008.3 |
| 20260509091530 | 48 | 119 | 0.0 | 2.0 | 0.00 | 0.00 | 0.00 | 94 | 1008.1 |
| 20260509091009 | 48 | 119 | 0.0 | 2.0 | 0.00 | 0.00 | 0.00 | 94 | 1008.2 |
| 20260509090508 | 48 | 128 | 0.0 | 2.0 | 0.00 | 0.00 | 0.00 | 94 | 1008.2 |
| 20260509090040 | 48 | 229 | 1.0 | 2.0 | 0.00 | 0.00 | 0.00 | 94 | 1008.3 |
| 20260509085509 | 48 | 49 | 0.0 | 2.0 | 0.00 | 0.00 | 0.00 | 94 | 1008.5 |
| 20260509085007 | 48 | 50 | 1.0 | 2.0 | 0.00 | 0.00 | 0.00 | 94 | 1008.5 |
| 20260509084526 | 48 | 159 | 0.0 | 0.0 | 0.00 | 0.00 | 0.00 | 94 | 1008.5 |
| 20260509084007 | 48 | 159 | 0.0 | 0.0 | 0.00 | 0.00 | 0.00 | 94 | 1008.6 |
| 20260509083509 | 48 | 159 | 0.0 | 1.0 | 0.00 | 0.00 | 0.00 | 94 | 1008.6 |
| 20260509083025 | 48 | 159 | 0.0 | 1.0 | 0.00 | 0.00 | 0.00 | 94 | 1008.7 |
| 20260509082508 | 48 | 159 | 0.0 | 1.0 | 0.00 | 0.00 | 0.00 | 94 | 1008.7 |
| 20260509082010 | 48 | 159 | 0.0 | 1.0 | 0.00 | 0.00 | 0.00 | 94 | 1008.7 |
| 20260509081531 | 48 | 159 | 0.0 | 0.0 | 0.00 | 0.00 | 0.00 | 94 | 1008.7 |
| 20260509081009 | 48 | 159 | 0.0 | 1.0 | 0.00 | 0.00 | 0.00 | 94 | 1008.7 |
| 20260509080509 | 48 | 159 | 0.0 | 1.0 | 0.00 | 0.00 | 0.00 | 94 | 1008.7 |
| 20260509080026 | 48 | 159 | 0.0 | 1.0 | 0.00 | 0.00 | 0.00 | 94 | 1008.8 |
| 20260509074526 | 48 | 155 | 0.0 | 4.0 | 0.00 | 0.00 | 0.00 | 94 | 1008.7 |
| 20260509074011 | 48 | 146 | 1.0 | 4.0 | 0.00 | 0.00 | 0.00 | 94 | 1008.7 |
| 20260509073507 | 48 | 144 | 1.0 | 2.0 | 0.00 | 0.00 | 0.00 | 94 | 1008.7 |
| 20260509073039 | 48 | 159 | 0.0 | 2.0 | 0.00 | 0.00 | 0.00 | 94 | 1008.8 |
| 20260509072507 | 48 | 158 | 1.0 | 4.0 | 0.00 | 0.00 | 0.00 | 94 | 1008.8 |
| 20260509072009 | 48 | 153 | 1.0 | 4.0 | 0.00 | 0.00 | 0.00 | 94 | 1008.8 |
| 20260509071528 | 48 | 163 | 1.0 | 8.0 | 0.00 | 0.00 | 0.00 | 94 | 1008.8 |
| 20260509071008 | 48 | 149 | 3.0 | 8.0 | 0.00 | 0.00 | 0.00 | 94 | 1008.6 |
| 20260509070513 | 48 | 147 | 3.0 | 7.0 | 0.00 | 0.00 | 0.00 | 94 | 1008.5 |
| 20260509070038 | 48 | 159 | 1.0 | 6.0 | 0.00 | 0.00 | 0.00 | 94 | 1008.5 |
| 20260509065513 | 48 | 159 | 2.0 | 5.0 | 0.00 | 0.00 | 0.00 | 94 | 1008.6 |
| 20260509063051 | 48 | 119 | 0.0 | 0.0 | 0.00 | 0.00 | 0.00 | 94 | 1008.8 |
| 20260509062511 | 48 | 119 | 0.0 | 0.0 | 0.00 | 0.00 | 0.00 | 94 | 1008.9 |
| 20260509062009 | 48 | 119 | 0.0 | 0.0 | 0.00 | 0.00 | 0.00 | 94 | 1008.8 |
| 20260509061542 | 48 | 119 | 0.0 | 0.0 | 0.00 | 0.00 | 0.00 | 94 | 1008.8 |
| 20260509061009 | 48 | 119 | 0.0 | 1.0 | 0.00 | 0.00 | 0.00 | 94 | 1009.0 |
| 20260509060507 | 48 | 119 | 0.0 | 1.0 | 0.00 | 0.00 | 0.00 | 94 | 1009.1 |
| 20260509060037 | 48 | 119 | 0.0 | 2.0 | 0.00 | 0.00 | 0.00 | 94 | 1009.1 |
| 20260509055507 | 48 | 101 | 0.0 | 2.0 | 0.00 | 0.00 | 0.00 | 94 | 1009.1 |
| 20260509055013 | 48 | 120 | 0.0 | 2.0 | 0.00 | 0.00 | 0.00 | 94 | 1009.2 |
| 20260509054524 | 48 | 74 | 0.0 | 2.0 | 0.00 | 0.00 | 0.00 | 94 | 1009.4 |
| 20260509054010 | 48 | 105 | 0.0 | 2.0 | 0.00 | 0.00 | 0.00 | 94 | 1009.4 |
| 20260509053511 | 48 | 115 | 0.0 | 2.0 | 0.00 | 0.00 | 0.00 | 94 | 1009.5 |
| 20260509053026 | 48 | 44 | 0.0 | 1.0 | 0.00 | 0.00 | 0.00 | 94 | 1009.6 |
| 20260509052507 | 48 | 38 | 0.0 | 1.0 | 0.00 | 0.00 | 0.00 | 94 | 1009.7 |
| 20260509052007 | 48 | 38 | 0.0 | 1.0 | 0.00 | 0.00 | 0.00 | 94 | 1009.7 |
| 20260509051525 | 48 | 38 | 0.0 | 0.0 | 0.00 | 0.00 | 0.00 | 94 | 1009.7 |
| 20260509051010 | 48 | 38 | 0.0 | 1.0 | 0.00 | 0.00 | 0.00 | 94 | 1009.7 |
| 20260509050506 | 48 | 38 | 0.0 | 1.0 | 0.00 | 0.00 | 0.00 | 94 | 1009.8 |
| 20260509050026 | 48 | 40 | 0.0 | 2.0 | 0.00 | 0.00 | 0.00 | 94 | 1009.8 |
| 20260509045507 | 48 | 40 | 0.0 | 2.0 | 0.00 | 0.00 | 0.00 | 94 | 1009.8 |
| 20260509045013 | 48 | 46 | 0.0 | 2.0 | 0.00 | 0.00 | 0.00 | 93 | 1009.8 |
| 20260509044526 | 48 | 42 | 0.0 | 2.0 | 0.00 | 0.00 | 0.00 | 94 | 1009.8 |
| 20260509044009 | 48 | 42 | 0.0 | 2.0 | 0.00 | 0.00 | 0.00 | 93 | 1010.0 |
| 20260509043508 | 48 | 26 | 0.0 | 3.0 | 0.00 | 0.00 | 0.00 | 94 | 1010.1 |
| 20260509043025 | 48 | 43 | 0.0 | 3.0 | 0.00 | 0.00 | 0.00 | 93 | 1010.2 |
| 20260509042512 | 48 | 17 | 0.0 | 2.0 | 0.00 | 0.00 | 0.00 | 93 | 1010.2 |
| 20260509042012 | 48 | 22 | 0.0 | 2.0 | 0.00 | 0.00 | 0.00 | 93 | 1010.3 |
| 20260509041526 | 48 | 76 | 0.0 | 1.0 | 0.00 | 0.00 | 0.00 | 93 | 1010.3 |
| 20260509041012 | 48 | 88 | 0.0 | 1.0 | 0.00 | 0.00 | 0.00 | 93 | 1010.4 |
| 20260509040507 | 48 | 88 | 0.0 | 0.0 | 0.00 | 0.00 | 0.00 | 93 | 1010.5 |
| 20260509040025 | 48 | 88 | 0.0 | 1.0 | 0.00 | 0.00 | 0.00 | 93 | 1010.6 |
| 20260509035509 | 49 | 88 | 0.0 | 1.0 | 0.00 | 0.00 | 0.00 | 93 | 1010.7 |
| 20260509035009 | 49 | 74 | 0.0 | 0.0 | 0.00 | 0.00 | 0.00 | 93 | 1010.8 |
| 20260509034525 | 49 | 74 | 0.0 | 1.0 | 0.00 | 0.00 | 0.00 | 93 | 1010.8 |
| 20260509034009 | 49 | 74 | 0.0 | 2.0 | 0.00 | 0.00 | 0.00 | 93 | 1010.9 |
| 20260509033512 | 49 | 74 | 0.0 | 2.0 | 0.00 | 0.00 | 0.00 | 93 | 1010.9 |
| 20260509033025 | 49 | 83 | 0.0 | 1.0 | 0.00 | 0.00 | 0.00 | 93 | 1011.0 |
| 20260509032511 | 49 | 83 | 0.0 | 1.0 | 0.00 | 0.00 | 0.00 | 93 | 1011.1 |
| 20260509032014 | 49 | 83 | 0.0 | 1.0 | 0.00 | 0.00 | 0.00 | 93 | 1011.0 |
| 20260509031528 | 49 | 83 | 0.0 | 1.0 | 0.00 | 0.00 | 0.00 | 93 | 1011.1 |
| 20260509031012 | 49 | 83 | 0.0 | 1.0 | 0.00 | 0.00 | 0.00 | 93 | 1011.1 |
| 20260509030511 | 49 | 85 | 0.0 | 1.0 | 0.00 | 0.00 | 0.00 | 93 | 1011.2 |
| 20260509030026 | 49 | 85 | 0.0 | 2.0 | 0.00 | 0.00 | 0.00 | 93 | 1011.2 |
| 20260509025504 | 49 | 85 | 0.0 | 2.0 | 0.00 | 0.00 | 0.00 | 93 | 1011.3 |
| 20260509024010 | 49 | 5 | 0.0 | 1.0 | 0.00 | 0.00 | 0.00 | 93 | 1011.6 |
| 20260509023506 | 49 | 14 | 0.0 | 1.0 | 0.00 | 0.00 | 0.00 | 93 | 1011.8 |
| 20260509023019 | 49 | 14 | 0.0 | 1.0 | 0.00 | 0.00 | 0.00 | 93 | 1011.8 |
| 20260509022507 | 49 | 15 | 0.0 | 1.0 | 0.00 | 0.00 | 0.00 | 92 | 1011.8 |
| 20260509022009 | 49 | 15 | 0.0 | 1.0 | 0.00 | 0.00 | 0.00 | 92 | 1011.8 |
| 20260509021518 | 49 | 311 | 0.0 | 1.0 | 0.00 | 0.00 | 0.00 | 92 | 1011.8 |
| 20260509021008 | 49 | 311 | 0.0 | 1.0 | 0.00 | 0.00 | 0.00 | 92 | 1011.7 |
| 20260509020508 | 49 | 311 | 0.0 | 1.0 | 0.00 | 0.00 | 0.00 | 92 | 1011.7 |
| 20260509020035 | 49 | 311 | 0.0 | 2.0 | 0.00 | 0.00 | 0.00 | 92 | 1011.7 |
| 20260509015505 | 49 | 311 | 0.0 | 2.0 | 0.00 | 0.00 | 0.00 | 92 | 1011.6 |
| 20260509015006 | 49 | 325 | 0.0 | 2.0 | 0.00 | 0.00 | 0.00 | 92 | 1011.5 |
| 20260509014534 | 49 | 319 | 0.0 | 2.0 | 0.00 | 0.00 | 0.00 | 92 | 1011.4 |
| 20260509013506 | 49 | 332 | 1.0 | 5.0 | 0.00 | 0.00 | 0.00 | 92 | 1011.1 |
| 20260509013032 | 49 | 329 | 1.0 | 3.0 | 0.00 | 0.00 | 0.00 | 91 | 1010.9 |
| 20260509012506 | 49 | 142 | 0.0 | 3.0 | 0.00 | 0.00 | 0.00 | 91 | 1010.6 |
| 20260509012008 | 49 | 138 | 0.0 | 2.0 | 0.00 | 0.00 | 0.00 | 91 | 1010.3 |
| 20260509011520 | 50 | 298 | 0.0 | 2.0 | 0.00 | 0.00 | 0.00 | 91 | 1010.1 |
| 20260509011007 | 50 | 9 | 0.0 | 2.0 | 0.00 | 0.00 | 0.00 | 91 | 1010.3 |
| 20260509010511 | 50 | 302 | 0.0 | 1.0 | 0.00 | 0.00 | 0.00 | 91 | 1010.3 |
| 20260509010022 | 50 | 302 | 0.0 | 1.0 | 0.00 | 0.00 | 0.00 | 91 | 1010.4 |
| 20260509005507 | 50 | 302 | 0.0 | 4.0 | 0.00 | 0.00 | 0.00 | 91 | 1010.2 |
| 20260509005012 | 50 | 36 | 1.0 | 4.0 | 0.00 | 0.00 | 0.00 | 91 | 1010.1 |
| 20260509004520 | 50 | 31 | 0.0 | 2.0 | 0.00 | 0.00 | 0.00 | 90 | 1010.1 |
| 20260509004008 | 50 | 115 | 0.0 | 4.0 | 0.00 | 0.00 | 0.00 | 90 | 1010.2 |
| 20260509002507 | 50 | 316 | 0.0 | 2.0 | 0.00 | 0.00 | 0.00 | 90 | 1010.2 |
| 20260509001008 | 51 | 131 | 0.0 | 1.0 | 0.00 | 0.00 | 0.00 | 89 | 1010.0 |
| 20260509000508 | 51 | 131 | 0.0 | 1.0 | 0.00 | 0.00 | 0.00 | 89 | 1010.0 |
| 20260509000023 | 51 | 131 | 0.0 | 0.0 | 0.00 | 0.00 | 0.00 | 89 | 1009.9 |
| 20260508235503 | 51 | 131 | 0.0 | 1.0 | 0.00 | 0.00 | 0.00 | 89 | 1009.9 |
| 20260508235006 | 51 | 131 | 0.0 | 1.0 | 0.00 | 0.00 | 0.00 | 89 | 1009.8 |
| 20260508234506 | 51 | 130 | 0.0 | 1.0 | 0.00 | 0.00 | 0.00 | 89 | 1009.8 |
| 20260508234003 | 51 | 130 | 0.0 | 1.0 | 0.00 | 0.00 | 0.00 | 89 | 1009.7 |
| 20260508233503 | 51 | 130 | 0.0 | 1.0 | 0.00 | 0.00 | 0.00 | 89 | 1009.8 |
| 20260508233005 | 51 | 130 | 0.0 | 1.0 | 0.00 | 0.00 | 0.00 | 89 | 1009.8 |
| 20260508232504 | 51 | 61 | 0.0 | 1.0 | 0.00 | 0.00 | 0.00 | 89 | 1009.7 |
| 20260508232003 | 51 | 61 | 0.0 | 1.0 | 0.00 | 0.00 | 0.00 | 89 | 1009.7 |
| 20260508231505 | 51 | 61 | 0.0 | 2.0 | 0.00 | 0.00 | 0.00 | 89 | 1009.7 |
| 20260508231003 | 51 | 41 | 0.0 | 2.0 | 0.00 | 0.00 | 0.00 | 88 | 1009.8 |
| 20260508230502 | 51 | 75 | 0.0 | 1.0 | 0.00 | 0.00 | 0.00 | 88 | 1010.1 |
| 20260508230009 | 51 | 75 | 0.0 | 2.0 | 0.00 | 0.00 | 0.00 | 88 | 1010.1 |
| 20260508225503 | 51 | 75 | 0.0 | 2.0 | 0.00 | 0.00 | 0.00 | 87 | 1010.2 |
| 20260508225003 | 51 | 75 | 0.0 | 2.0 | 0.00 | 0.00 | 0.00 | 87 | 1010.2 |
| 20260508224507 | 52 | 75 | 0.0 | 2.0 | 0.00 | 0.00 | 0.00 | 87 | 1010.2 |